Torna al catalogo

COSMOS 1275 DEB

AttivoPO
NORAD 18637·DEBRIS·🇷🇺 Russia

Lanciato Jun 4, 1981 da Plesetsk Cosmodrome

Loading…

Prossimi Passaggi (prossime 24 ore)

TLE

AggiornatoSource: Space-Track

Epoca: Sep 14, 2026, 18:46 UTC

1 18637U 81053LX  26257.78263161  .00002653  00000-0  10795-2 0  9998
2 18637  82.9636 192.5268 0043748 217.0531 142.7632 14.26710176109986

Traccia COSMOS 1275 DEB in tempo reale con AllMySat

Download on the App Store